[[{"header":{"parameterUnit":"m.s-1","parameterCategory":1,"la1":30.2991,"la2":30.254,"lo1":-89.0895,"lo2":-89.0444,"dy":0.0017,"dx":0.0017,"nx":28,"ny":28,"refTime":"2024-08-30T03:00:00:Z","depth":0,"parameterNumber":2,"parameterNumberName":"U-component_of_WINDS"},"data":[0,0,0,0,0,0,0,0,0,0,0,0,0,0,0,0,0,0,0,0,0,0,0,0,0,0,0,0,0,0,0,0,0,0,0,0,0,0,0,0,0,0,0,0,0,0,0,0,0,0,0,0,0,0,0,0,0,0,-3.7958,-3.796,0,-3.8095,-3.8096,-3.8098,-3.8122,-3.812,-3.8119,-3.8118,-3.8247,-3.8251,-3.8256,0,0,0,0,0,0,0,0,0,0,0,0,0,-3.7708,-3.7713,-3.7958,-3.796,-3.7961,-3.8094,-3.8096,-3.8098,-3.8122,-3.812,-3.8119,-3.8118,-3.8245,-3.8251,-3.8256,0,0,0,0,0,0,0,0,0,0,0,0,0,-3.7827,-3.7714,-3.7958,-3.799,-3.7994,-3.8094,-3.8096,-3.8098,-3.8122,-3.812,-3.8119,-3.8117,-3.8244,-3.825,-3.8257,-3.8331,0,0,-3.8277,-3.828,0,0,0,0,0,0,0,0,-3.7821,-3.7837,-3.7983,-3.7988,-3.7993,-3.809,-3.8055,-3.8176,-3.8122,-3.8073,-3.8118,-3.8116,-3.8195,-3.8206,-3.8235,-3.8337,-3.8343,-3.8278,-3.8282,-3.8285,-3.8286,0,0,0,0,0,0,0,-3.7812,-3.7831,-3.8012,-3.7985,-3.7991,-3.7994,-3.8009,-3.8078,-3.8141,-3.8077,-3.8079,-3.8096,-3.8197,-3.8228,-3.8238,-3.8344,-3.8278,-3.8283,-3.8288,-3.829,-3.8514,-3.8515,0,0,0,0,0,0,-3.78,-3.7824,-3.8007,-3.8016,-3.7901,-3.8,-3.8017,-3.806,-3.8141,-3.8152,-3.8097,-3.8096,-3.8217,-3.823,-3.8242,-3.8333,-3.8285,-3.8291,-3.8295,-3.8512,-3.8514,-3.8516,0,0,0,0,0,0,-3.7794,-3.7816,-3.8002,-3.7921,-3.7945,-3.8006,-3.8054,-3.8063,-3.8094,-3.8156,-3.8166,-3.8118,-3.8217,-3.8233,-3.8309,-3.8338,-3.8294,-3.83,-3.8509,-3.8512,-3.8515,-3.8517,0,0,0,0,0,0,-3.7787,-3.7814,-3.7845,-3.7921,-3.7949,-3.8069,-3.8056,-3.8067,-3.8107,-3.8108,-3.8178,-3.8188,-3.8217,-3.8299,-3.8316,-3.8347,-3.8305,-3.8507,-3.8511,-3.8514,-3.8514,-3.8519,-3.8524,0,0,0,0,0,-3.7778,-3.7838,-3.7847,-3.7868,-3.7989,-3.8071,-3.8086,-3.8122,-3.8109,-3.8139,-3.8179,-3.8185,-3.8333,-3.8307,-3.8326,-3.8359,-3.8505,-3.851,-3.8514,-3.8512,-3.8518,-3.8524,0,0,0,0,0,0,-3.7759,-3.7848,-3.7859,-3.7946,-3.8001,-3.8075,-3.8114,-3.8127,-3.8184,-3.8182,-3.822,-3.8235,-3.8309,-3.8342,-3.8311,-3.8435,-3.8418,-3.8426,-3.841,-3.8417,-3.8421,-3.841,-3.8311,0,0,0,0,0,-3.7766,-3.7828,-3.7901,-3.7971,-3.7999,-3.8052,-3.8088,-3.8112,-3.8169,-3.8191,-3.8236,-3.8289,-3.8347,-3.8384,-3.8441,-3.8521,-3.8534,-3.8553,-3.8557,-3.8561,-3.8566,-3.8609,-3.8617,-3.853,-3.853,-3.853,0,0,-3.7778,-3.7835,-3.7871,-3.7968,-3.8014,-3.8074,-3.8071,-3.8135,-3.8179,-3.8199,-3.8275,-3.831,-3.8371,-3.8449,-3.8486,-3.8479,-3.8594,-3.8566,-3.8569,-3.8572,-3.8614,-3.8622,-3.863,-3.8533,-3.8533,-3.8532,0,0,-3.7832,-3.7882,-3.7945,-3.7992,-3.8063,-3.8099,-3.8114,-3.8187,-3.8212,-3.829,-3.8306,-3.8358,-3.8458,-3.85,-3.8535,-3.8607,-3.8614,-3.8624,-3.8647,-3.8688,-3.8695,-3.8701,-3.8725,-3.8733,-3.8631,-3.8631,-3.8631,0,-3.7837,-3.7932,-3.7975,-3.8039,-3.808,-3.8107,-3.8169,-3.8211,-3.8295,-3.8321,-3.8314,-3.844,-3.8483,-3.8571,-3.8589,-3.8617,-3.8632,-3.8615,-3.8692,-3.8698,-3.8704,-3.8727,-3.8736,-3.8631,-3.8631,-3.8631,-3.8631,0,-3.7934,-3.8,-3.8042,-3.8127,-3.8173,-3.8236,-3.8285,-3.8326,-3.8345,-3.8381,-3.8458,-3.8511,-3.8579,-3.8602,-3.862,-3.8692,-3.8686,-3.8685,-3.8668,-3.8713,-3.8734,-3.8743,-3.8632,-3.8632,-3.8632,-3.8631,0,0,-3.7976,-3.8087,-3.8101,-3.814,-3.8221,-3.827,-3.8334,-3.8404,-3.8438,-3.8495,-3.8547,-3.8632,-3.8632,-3.8671,-3.8695,-3.8732,-3.8783,-3.8726,-3.8728,-3.8732,-3.8862,-3.8861,-3.887,-3.879,-3.8791,-3.8793,-3.8856,0,-3.8037,-3.8154,-3.8195,-3.829,-3.835,-3.8377,-3.8432,-3.8486,-3.8521,-3.8574,-3.8612,-3.8671,-3.8668,-3.8692,-3.873,-3.8768,-3.8809,-3.8765,-3.8834,-3.8836,-3.8815,-3.8882,-3.888,-3.8937,-3.8865,-3.8867,-3.8868,0,-3.8123,-3.8186,-3.8289,-3.8363,-3.839,-3.8439,-3.8506,-3.8559,-3.8619,-3.8642,-3.8688,-3.8709,-3.8773,-3.8755,-3.8842,-3.8811,-3.8842,-3.8866,-3.8869,-3.8873,-3.8852,-3.8885,-3.8957,-3.8964,-3.8882,-3.8881,-3.888,0,-3.814,-3.825,-3.8326,-3.8359,-3.8448,-3.8481,-3.8519,-3.858,-3.8619,-3.8678,-3.8703,-3.8767,-3.8801,-3.8849,-3.8885,-3.887,-3.8968,-3.8954,-3.8985,-3.8984,-3.9001,-3.8999,-3.9075,-3.9027,-3.9026,-3.9026,-3.9026,0,-3.8202,-3.8263,-3.8335,-3.8381,-3.8449,-3.8495,-3.856,-3.8599,-3.8653,-3.8704,-3.8731,-3.8778,-3.8826,-3.8878,-3.8907,-3.8973,-3.8989,-3.9006,-3.9012,-3.9002,-3.9,-3.902,-3.9016,-3.9029,-3.9028,-3.9028,-3.9027,0,-3.8231,-3.8282,-3.8366,-3.8446,-3.8467,-3.8513,-3.8579,-3.8623,-3.8661,-3.8726,-3.8744,-3.8801,-3.8864,-3.8907,-3.8987,-3.9007,-3.9077,-3.9084,-3.9057,-3.906,-3.9088,-3.9084,-3.9178,-3.9191,-3.9136,-3.9136,-3.9137,0,-3.8265,-3.8314,-3.8399,-3.8438,-3.8478,-3.8539,-3.8581,-3.8628,-3.867,-3.8744,-3.8778,-3.8844,-3.8899,-3.8998,-3.9045,-3.9106,-3.9112,-3.9142,-3.9121,-3.9109,-3.911,-3.9105,-3.9109,-3.9143,-3.9143,-3.9144,-3.9144,0,-3.8321,-3.8345,-3.8406,-3.8477,-3.8528,-3.8585,-3.8641,-3.867,-3.8727,-3.8772,-3.8839,-3.8882,-3.8966,-3.903,-3.9096,-3.9131,-3.9145,-3.9151,-3.9161,-3.9149,-3.9131,-3.9139,-3.9063,-3.9147,-3.9147,-3.9147,-3.9147,-3.9147,-3.8352,-3.8396,-3.8464,-3.8531,-3.858,-3.8633,-3.8679,-3.8724,-3.8782,-3.8856,-3.888,-3.8949,-3.9008,-3.9099,-3.9135,-3.9188,-3.9185,-3.9199,-3.9203,-3.9205,-3.9204,-3.9126,-3.92,-3.92,-3.92,-3.92,-3.92,0,-3.8406,-3.8452,-3.8515,-3.8595,-3.8648,-3.8663,-3.8727,-3.8769,-3.8831,-3.8887,-3.8942,-3.9018,-3.9081,-3.9134,-3.9198,-3.9229,-3.9238,-3.9244,-3.924,-3.9248,-3.9204,-3.9188,-3.9237,-3.9236,-3.9236,-3.9236,-3.9236,-3.9236,-3.8441,-3.8516,-3.8548,-3.8646,-3.8691,-3.8762,-3.8797,-3.8845,-3.889,-3.8976,-3.9029,-3.9065,-3.9119,-3.9188,-3.9245,-3.9259,-3.9279,-3.9284,-3.9299,-3.9256,-3.9251,-3.9247,-3.9232,-3.9289,-3.9289,-3.9338,-3.9339,-3.9339]},{"header":{"parameterUnit":"m.s-1","parameterCategory":1,"la1":30.2991,"la2":30.254,"lo1":-89.0895,"lo2":-89.0444,"dy":0.0017,"dx":0.0017,"nx":28,"ny":28,"refTime":"2024-08-30T03:00:00:Z","depth":0,"parameterNumber":3,"parameterNumberName":"V-component_of_WINDS"},"data":[0,0,0,0,0,0,0,0,0,0,0,0,0,0,0,0,0,0,0,0,0,0,0,0,0,0,0,0,0,0,0,0,0,0,0,0,0,0,0,0,0,0,0,0,0,0,0,0,0,0,0,0,0,0,0,0,0,0,2.3113,2.3112,0,2.3088,2.3088,2.3087,2.3056,2.3055,2.3054,2.3054,2.3028,2.3028,2.3028,0,0,0,0,0,0,0,0,0,0,0,0,0,2.3132,2.3132,2.3113,2.3112,2.3112,2.3088,2.3088,2.3087,2.3056,2.3055,2.3054,2.3054,2.3028,2.3028,2.3028,0,0,0,0,0,0,0,0,0,0,0,0,0,2.3117,2.3132,2.3113,2.3093,2.3091,2.3088,2.3088,2.3087,2.3056,2.3055,2.3054,2.3053,2.3029,2.3028,2.3028,2.3042,0,0,2.3027,2.3027,0,0,0,0,0,0,0,0,2.3118,2.3117,2.3096,2.3095,2.3092,2.3074,2.3085,2.3072,2.3056,2.3069,2.3054,2.3053,2.3044,2.3043,2.304,2.304,2.3039,2.3027,2.3027,2.3027,2.3027,0,0,0,0,0,0,0,2.3119,2.3117,2.3103,2.3096,2.3094,2.3086,2.3083,2.3083,2.3061,2.3068,2.3066,2.3063,2.3043,2.304,2.3039,2.3039,2.3027,2.3027,2.3027,2.3026,2.3049,2.305,0,0,0,0,0,0,2.3123,2.3119,2.3104,2.3102,2.3104,2.3086,2.3083,2.3081,2.3061,2.3058,2.3064,2.3062,2.3041,2.3039,2.3038,2.3051,2.3027,2.3026,2.3026,2.3048,2.3049,2.305,0,0,0,0,0,0,2.3124,2.3122,2.3105,2.311,2.3107,2.3087,2.3085,2.3081,2.3078,2.3058,2.3054,2.3065,2.304,2.3038,2.3041,2.305,2.3026,2.3026,2.3047,2.3048,2.3049,2.3079,0,0,0,0,0,0,2.3124,2.3123,2.3127,2.311,2.3107,2.3108,2.3085,2.3081,2.3077,2.3074,2.3058,2.3054,2.3039,2.3041,2.304,2.3049,2.3026,2.3046,2.3048,2.3049,2.3077,2.3081,2.3085,0,0,0,0,0,2.3125,2.3137,2.3128,2.3126,2.3112,2.3109,2.3107,2.3089,2.3078,2.3083,2.307,2.3055,2.305,2.3042,2.3041,2.3049,2.3045,2.3047,2.3049,2.3076,2.308,2.3085,0,0,0,0,0,0,2.3156,2.3134,2.3124,2.313,2.3122,2.3103,2.3108,2.3095,2.3089,2.3087,2.3066,2.3062,2.3067,2.3059,2.305,2.3061,2.3045,2.3047,2.3066,2.307,2.3074,2.3075,2.3026,0,0,0,0,0,2.3163,2.3162,2.3144,2.3151,2.3147,2.3129,2.3127,2.3114,2.3104,2.31,2.3088,2.3078,2.3075,2.3072,2.3068,2.3077,2.3072,2.3082,2.3086,2.3089,2.309,2.3093,2.3097,2.3055,2.3055,2.3055,0,0,2.3179,2.3167,2.3167,2.3157,2.3149,2.3147,2.3126,2.3126,2.3124,2.31,2.3101,2.3092,2.308,2.3086,2.3088,2.3079,2.3101,2.3091,2.3094,2.3093,2.3095,2.3099,2.3102,2.3057,2.3056,2.3056,0,0,2.3206,2.3197,2.3202,2.3194,2.3182,2.317,2.3171,2.3155,2.3148,2.3149,2.313,2.3129,2.3123,2.3115,2.311,2.3135,2.312,2.3135,2.3153,2.3156,2.3159,2.3162,2.3169,2.3173,2.3136,2.3136,2.3136,0,2.3226,2.3223,2.3206,2.3207,2.3202,2.3181,2.3185,2.3179,2.3166,2.3163,2.3154,2.3146,2.3137,2.3139,2.3145,2.3143,2.3143,2.3135,2.316,2.3163,2.3165,2.3172,2.3175,2.3138,2.3138,2.3137,2.3137,0,2.3249,2.3247,2.3253,2.3241,2.3237,2.324,2.3223,2.3221,2.321,2.3198,2.32,2.3188,2.318,2.318,2.3169,2.3181,2.3176,2.3164,2.3147,2.3171,2.3177,2.318,2.314,2.3139,2.3139,2.3139,0,0,2.3292,2.3271,2.3273,2.3267,2.3252,2.3251,2.3253,2.3246,2.3244,2.3237,2.3237,2.3233,2.3221,2.3216,2.3204,2.3207,2.3226,2.3194,2.3194,2.3199,2.3237,2.3245,2.3249,2.3217,2.3217,2.3218,2.3238,0,2.3315,2.3316,2.3301,2.3306,2.3305,2.3285,2.3286,2.3278,2.3268,2.3264,2.3254,2.325,2.3236,2.3233,2.3235,2.3223,2.3233,2.3222,2.3216,2.3216,2.3217,2.3252,2.326,2.328,2.324,2.3241,2.3241,0,2.3341,2.3334,2.334,2.3325,2.3324,2.3325,2.3317,2.3315,2.3305,2.3297,2.3291,2.3278,2.3278,2.3264,2.3263,2.3256,2.3253,2.3247,2.3247,2.3245,2.3228,2.3248,2.3286,2.3288,2.3245,2.3244,2.3244,0,2.337,2.3363,2.3365,2.3361,2.3344,2.3345,2.3338,2.3327,2.3324,2.3317,2.3315,2.3308,2.3304,2.3299,2.3284,2.3275,2.3285,2.327,2.3278,2.3278,2.3279,2.3279,2.3315,2.328,2.328,2.328,2.328,0,2.3395,2.3399,2.3378,2.3379,2.3382,2.3365,2.3369,2.336,2.3351,2.335,2.3333,2.3332,2.3313,2.331,2.3298,2.3299,2.3297,2.3291,2.3287,2.3291,2.3292,2.3287,2.3285,2.3281,2.3281,2.3281,2.3281,0,2.3427,2.3413,2.3414,2.3398,2.3395,2.3398,2.3384,2.3384,2.3374,2.3373,2.3371,2.3355,2.335,2.3335,2.3327,2.3319,2.3323,2.3318,2.3326,2.3324,2.3332,2.3331,2.3365,2.3368,2.3334,2.3334,2.3334,0,2.3443,2.3446,2.3431,2.3429,2.3423,2.342,2.3416,2.34,2.3397,2.3386,2.3387,2.3382,2.3376,2.337,2.3357,2.335,2.3344,2.3356,2.3342,2.3346,2.3342,2.3341,2.3341,2.3358,2.3359,2.3359,2.3359,0,2.3473,2.3466,2.3462,2.3456,2.3452,2.3446,2.3439,2.3438,2.342,2.3418,2.3413,2.3409,2.3401,2.3395,2.3387,2.3379,2.3366,2.3364,2.3365,2.3368,2.3373,2.3369,2.3332,2.3363,2.3363,2.3362,2.3362,2.3362,2.3496,2.3497,2.3487,2.3483,2.3476,2.347,2.3469,2.3459,2.3455,2.3447,2.3438,2.3434,2.3424,2.3412,2.3405,2.3402,2.3395,2.3397,2.3397,2.3397,2.3399,2.3375,2.34,2.34,2.34,2.34,2.34,0,2.3524,2.3517,2.3513,2.3504,2.35,2.349,2.3482,2.3479,2.3476,2.3468,2.3463,2.3458,2.3452,2.344,2.3433,2.3432,2.3426,2.3431,2.343,2.3428,2.3406,2.3405,2.3436,2.3436,2.3436,2.3436,2.3436,2.3436,2.3538,2.3538,2.3531,2.3528,2.352,2.3517,2.3513,2.3507,2.3501,2.3495,2.3491,2.3483,2.3473,2.3465,2.3459,2.3456,2.3453,2.346,2.3454,2.3433,2.343,2.3427,2.3425,2.346,2.346,2.3476,2.3476,2.3476]}]]